Location: Brabourne
(51.1333°N, 1.0000°E)
Time: 07:29:03
(UTC+00:00)

X-37B - Pass Details

Date: 20 June 2021
Orbit: 383 x 392 km, 45.0° (Epoch: 01 July)

Event Time Altitude Azimuth Distance (km) Brightness Sun altitude
Exits shadow 02:01:00 15° 236° (SW) 1,160 2.4 -10.6°
Maximum altitude 02:02:52 24° 189° (S) 840 1.7 -10.5°
Drops below altitude 10° 02:05:30 10° 132° (SE) 1,406 3.3 -10.3°
Sets 02:07:48 0° 119° (ESE) 2,261 4.5 -10.1°
